SURFSAT

Last updated on Thu Jan 26 2023 00:03:42 GMT+0000 (Coordinated Universal Time)

1 43614U 18070B 23025.20468978 .07521820 16343-6 78964-3 0 9995 2 43614 92.9779 194.4164 0008540 279.0573 80.9768 16.37716428245848

Satellite not in orbit